When you browse on this site, cookies collect data to enhance your experience and personalize the content and advertising you see.
Visit our Privacy Policy to learn more. By continuing to use the site, you agree to this use of cookies and data.

Hourly Weather Sana

Today, 13 July, Monday

Time Temperature Precipitation Wind Pressure Humidity
00:00 +23°C° 0.1 mm 2 mps 577 mmHg 58%
01:00 +23°C° 0 mm 2 mps 576 mmHg 57%
02:00 +23°C° 0 mm 2 mps 576 mmHg 56%
03:00 +21°C° 0 mm 2 mps 575 mmHg 55%
04:00 +21°C° 0 mm 2 mps 575 mmHg 54%
05:00 +21°C° 0 mm 2 mps 576 mmHg 53%
06:00 +20°C° 0 mm 2 mps 576 mmHg 52%
07:00 +21°C° 0 mm 2 mps 577 mmHg 47%
08:00 +24°C° 0 mm 3 mps 577 mmHg 42%
09:00 +25°C° 0 mm 3 mps 578 mmHg 38%
10:00 +26°C° 0 mm 3 mps 578 mmHg 35%
11:00 +26°C° 0 mm 3 mps 578 mmHg 33%
12:00 +27°C° 0 mm 2 mps 579 mmHg 30%
13:00 +26°C° 0.2 mm 3 mps 578 mmHg 36%
14:00 +26°C° 0.2 mm 3 mps 577 mmHg 41%
15:00 +25°C° 0.2 mm 4 mps 576 mmHg 47%
16:00 +23°C° 0.3 mm 4 mps 576 mmHg 49%
17:00 +24°C° 0.3 mm 3 mps 576 mmHg 52%
18:00 +22°C° 0.3 mm 3 mps 576 mmHg 54%
19:00 +22°C° 0.4 mm 3 mps 576 mmHg 56%
20:00 +21°C° 0.4 mm 3 mps 576 mmHg 59%
21:00 +21°C° 0.4 mm 2 mps 576 mmHg 61%
22:00 +21°C° 0 mm 2 mps 576 mmHg 62%
23:00 +22°C° 0 mm 1 mps 577 mmHg 62%

Tomorrow, 14 July, Tuesday

Time Temperature Precipitation Wind Pressure Humidity
00:00 +22°C° 0 mm 1 mps 577 mmHg 63%
01:00 +21°C° 0 mm 1 mps 576 mmHg 62%
02:00 +21°C° 0 mm 1 mps 576 mmHg 62%
03:00 +21°C° 0 mm 1 mps 575 mmHg 61%
04:00 +21°C° 0 mm 1 mps 576 mmHg 60%
05:00 +21°C° 0 mm 1 mps 576 mmHg 59%
06:00 +18°C° 0 mm 0 mps 576 mmHg 59%
07:00 +22°C° 0 mm 1 mps 577 mmHg 50%
08:00 +23°C° 0 mm 1 mps 578 mmHg 41%
09:00 +24°C° 0 mm 1 mps 578 mmHg 32%
10:00 +26°C° 0 mm 2 mps 579 mmHg 29%
11:00 +27°C° 0 mm 3 mps 580 mmHg 26%
12:00 +28°C° 0 mm 5 mps 580 mmHg 23%
13:00 +28°C° 0 mm 5 mps 580 mmHg 24%
14:00 +28°C° 0 mm 4 mps 579 mmHg 25%
15:00 +28°C° 0 mm 4 mps 578 mmHg 27%
16:00 +27°C° 0 mm 4 mps 578 mmHg 30%
17:00 +27°C° 0 mm 4 mps 578 mmHg 33%
18:00 +26°C° 0 mm 3 mps 578 mmHg 37%
19:00 +25°C° 0.1 mm 3 mps 578 mmHg 41%
20:00 +25°C° 0.1 mm 2 mps 578 mmHg 46%
21:00 +24°C° 0.1 mm 1 mps 578 mmHg 51%
22:00 +24°C° 0 mm 1 mps 578 mmHg 53%
23:00 +23°C° 0 mm 1 mps 578 mmHg 55%

Day after tomorrow, 15 July, Wednesday

Time Temperature Precipitation Wind Pressure Humidity
00:00 +23°C° 0 mm 1 mps 578 mmHg 57%
01:00 +23°C° 0 mm 1 mps 577 mmHg 55%
02:00 +23°C° 0 mm 1 mps 577 mmHg 54%
03:00 +23°C° 0 mm 1 mps 576 mmHg 53%
04:00 +23°C° 0 mm 1 mps 577 mmHg 52%
05:00 +22°C° 0 mm 1 mps 577 mmHg 51%
06:00 +22°C° 0 mm 1 mps 577 mmHg 50%
07:00 +24°C° 0 mm 2 mps 578 mmHg 43%
08:00 +25°C° 0 mm 4 mps 579 mmHg 35%
09:00 +27°C° 0 mm 5 mps 580 mmHg 28%
10:00 +27°C° 0 mm 5 mps 580 mmHg 27%
11:00 +28°C° 0 mm 5 mps 580 mmHg 25%
12:00 +29°C° 0 mm 5 mps 580 mmHg 24%
13:00 +29°C° 0.1 mm 5 mps 580 mmHg 27%
14:00 +28°C° 0.1 mm 4 mps 579 mmHg 30%
15:00 +28°C° 0.1 mm 4 mps 579 mmHg 33%
16:00 +27°C° 0.3 mm 4 mps 578 mmHg 37%
17:00 +26°C° 0.3 mm 3 mps 578 mmHg 41%
18:00 +26°C° 0.3 mm 3 mps 578 mmHg 45%
19:00 +25°C° 0.1 mm 3 mps 578 mmHg 48%
20:00 +24°C° 0.1 mm 2 mps 578 mmHg 52%
21:00 +23°C° 0.1 mm 2 mps 578 mmHg 56%
22:00 +22°C° 0.6 mm 3 mps 578 mmHg 58%
23:00 +21°C° 0.6 mm 4 mps 578 mmHg 60%

16 July, Thursday

Time Temperature Precipitation Wind Pressure Humidity
00:00 +21°C° 0.6 mm 5 mps 578 mmHg 63%
01:00 +20°C° 1.8 mm 4 mps 578 mmHg 68%
02:00 +18°C° 1.8 mm 3 mps 577 mmHg 73%
03:00 +17°C° 1.8 mm 2 mps 576 mmHg 78%
04:00 +18°C° 0.2 mm 2 mps 576 mmHg 76%
05:00 +18°C° 0.2 mm 3 mps 577 mmHg 74%
06:00 +18°C° 0.2 mm 3 mps 577 mmHg 72%
07:00 +19°C° 0.1 mm 3 mps 577 mmHg 65%
08:00 +20°C° 0.1 mm 3 mps 578 mmHg 58%
09:00 +21°C° 0.1 mm 3 mps 578 mmHg 52%
10:00 +24°C° 0 mm 3 mps 579 mmHg 43%
11:00 +26°C° 0 mm 3 mps 579 mmHg 35%
12:00 +28°C° 0 mm 3 mps 580 mmHg 26%
13:00 +28°C° 0.1 mm 3 mps 579 mmHg 28%
14:00 +27°C° 0.1 mm 4 mps 579 mmHg 30%
15:00 +27°C° 0.1 mm 4 mps 578 mmHg 32%
16:00 +26°C° 0.5 mm 4 mps 578 mmHg 40%
17:00 +23°C° 0.5 mm 4 mps 577 mmHg 48%
18:00 +22°C° 0.5 mm 4 mps 577 mmHg 55%
19:00 +22°C° 0.2 mm 3 mps 577 mmHg 57%
20:00 +21°C° 0.2 mm 3 mps 577 mmHg 59%
21:00 +21°C° 0.2 mm 2 mps 577 mmHg 61%
22:00 +21°C° 0 mm 2 mps 577 mmHg 60%
23:00 +22°C° 0 mm 1 mps 577 mmHg 60%

17 July, Friday

Time Temperature Precipitation Wind Pressure Humidity
00:00 +22°C° 0 mm 1 mps 577 mmHg 60%
01:00 +20°C° 0.1 mm 2 mps 576 mmHg 59%
02:00 +20°C° 0.1 mm 3 mps 576 mmHg 59%
03:00 +20°C° 0.1 mm 5 mps 576 mmHg 59%
04:00 +20°C° 0.1 mm 3 mps 576 mmHg 58%
05:00 +20°C° 0.1 mm 2 mps 576 mmHg 56%
06:00 +20°C° 0.1 mm 1 mps 576 mmHg 55%
07:00 +20°C° 0.1 mm 2 mps 576 mmHg 54%
08:00 +20°C° 0.1 mm 2 mps 577 mmHg 52%
09:00 +21°C° 0.1 mm 3 mps 577 mmHg 51%
10:00 +22°C° 0.1 mm 3 mps 578 mmHg 45%
11:00 +24°C° 0.1 mm 3 mps 578 mmHg 40%
12:00 +26°C° 0.1 mm 3 mps 579 mmHg 34%
13:00 +26°C° 0.1 mm 4 mps 578 mmHg 36%
14:00 +26°C° 0.1 mm 5 mps 578 mmHg 37%
15:00 +26°C° 0.1 mm 5 mps 578 mmHg 39%
16:00 +23°C° 0.9 mm 4 mps 578 mmHg 46%
17:00 +22°C° 0.9 mm 4 mps 577 mmHg 53%
18:00 +21°C° 0.9 mm 3 mps 577 mmHg 60%
19:00 +21°C° 0.6 mm 3 mps 577 mmHg 61%
20:00 +20°C° 0.6 mm 3 mps 577 mmHg 63%
21:00 +20°C° 0.6 mm 3 mps 578 mmHg 65%
22:00 +20°C° 0.2 mm 2 mps 577 mmHg 68%
23:00 +19°C° 0.2 mm 2 mps 576 mmHg 72%

18 July, Saturday

Time Temperature Precipitation Wind Pressure Humidity
00:00 +19°C° 0.2 mm 2 mps 576 mmHg 75%
01:00 +19°C° 0 mm 2 mps 576 mmHg 73%
02:00 +20°C° 0 mm 1 mps 576 mmHg 71%
03:00 +20°C° 0 mm 1 mps 575 mmHg 69%
04:00 +20°C° 0 mm 1 mps 576 mmHg 69%
05:00 +20°C° 0 mm 1 mps 576 mmHg 68%
06:00 +20°C° 0 mm 1 mps 576 mmHg 68%
07:00 +21°C° 0 mm 1 mps 577 mmHg 61%
08:00 +22°C° 0 mm 1 mps 577 mmHg 54%
09:00 +23°C° 0 mm 1 mps 578 mmHg 47%
10:00 +23°C° 1 mm 2 mps 578 mmHg 50%
11:00 +23°C° 1 mm 2 mps 577 mmHg 52%
12:00 +21°C° 1 mm 3 mps 577 mmHg 55%
13:00 +23°C° 1.2 mm 2 mps 577 mmHg 52%
14:00 +23°C° 1.2 mm 2 mps 577 mmHg 49%
15:00 +24°C° 1.2 mm 2 mps 576 mmHg 46%
16:00 +24°C° 0.1 mm 2 mps 576 mmHg 47%
17:00 +24°C° 0.1 mm 3 mps 577 mmHg 48%
18:00 +22°C° 0.1 mm 3 mps 577 mmHg 49%
19:00 +23°C° 0 mm 2 mps 577 mmHg 52%
20:00 +23°C° 0 mm 2 mps 577 mmHg 54%
21:00 +22°C° 0 mm 1 mps 577 mmHg 57%
22:00 +22°C° 0 mm 1 mps 577 mmHg 58%
23:00 +22°C° 0 mm 1 mps 577 mmHg 59%
Show more